Alicante, Spain

12:38 AM CET on December 09, 2016 (GMT +0100)
Alicante

Weather History for LEAL - March, 2014

Change the Weather History Date:

Monday, March 3, 2014

  Actual Average Record
Temperature  
Mean Temperature 60 °F -  
Max Temperature 67 °F 64 °F 80 °F (2007)
Min Temperature 53 °F 46 °F 32 °F (2004)
Degree Days  
Heating Degree Days 5    
Growing Degree Days 10 (Base 50)    
Moisture  
Dew Point 36 °F    
Average Humidity 38    
Maximum Humidity 72    
Minimum Humidity 13    
Precipitation  
Precipitation 0.00 in - - ()
Sea Level Pressure  
Sea Level Pressure 29.75 in    
Wind  
Wind Speed 15 mph ()    
Max Wind Speed 31 mph    
Max Gust Speed 46 mph    
Visibility 7.9 miles    
Events      
Averages and records for this station are not official NWS values.
T = Trace of Precipitation, MM = Missing Value Source: Averaged Metar Reports

Daily Weather History Graph

Daily Weather History Graph

Search for Another Location

Airport or City:

Trip Planner

Search our weather history database for the weather conditions in past years. The results will help you decide how hot, cold, wet, or windy it might be!

Date:

Astronomy

Mar. 03, 2014 Rise Set
Actual Time 7:31 AM CET 6:57 PM CET
Civil Twilight 7:05 AM CET 7:23 PM CET
Nautical Twilight 6:34 AM CET 7:54 PM CET
Astronomical Twilight 6:04 AM CET 8:25 PM CET
Moon 8:33 AM CET (3/3) 9:41 PM CET (3/3)
Length of Visible Light 12h 18m
Length of Day
11h 25m
Waxing Crescent, 6% of the Moon is Illuminated
Mar 3
Waxing Crescent
Mar 8
First Quarter
Mar 16
Full
Mar 24
Last Quarter
Mar 30
New

Hourly Weather History & Observations

Time (CET) Temp. Dew Point Humidity Pressure Visibility Wind Dir Wind Speed Gust Speed Precip Events Conditions
12:00 AM 66 °F 49 °F 43% 29.73 in - WSW 16.1 mph - -  
12:00 AM 66.2 °F 48.2 °F 52% 29.71 in 6.2 mi West 15.0 mph - N/A   Partly Cloudy
12:30 AM 66.2 °F 48.2 °F 52% 29.71 in 6.2 mi West 15.0 mph - N/A   Partly Cloudy
1:00 AM 65 °F 49 °F 45% 29.72 in 9 mi West 17.3 mph - -   Scattered Clouds
1:00 AM 66.2 °F 48.2 °F 52% 29.71 in 6.2 mi West 15.0 mph - N/A   Partly Cloudy
1:30 AM 64.4 °F 50.0 °F 59% 29.71 in 6.2 mi West 13.8 mph - N/A   Partly Cloudy
2:00 AM 63 °F 50 °F 52% 29.71 in - WNW 13.8 mph - -  
2:00 AM 62.6 °F 50.0 °F 63% 29.68 in 6.2 mi WNW 12.7 mph - N/A   Partly Cloudy
2:30 AM 62.6 °F 50.0 °F 63% 29.68 in 6.2 mi WNW 10.4 mph - N/A   Partly Cloudy
3:00 AM 62 °F 50 °F 54% 29.70 in - WNW 6.9 mph - -  
3:00 AM 62.6 °F 50.0 °F 63% 29.68 in 6.2 mi WNW 8.1 mph - N/A   Partly Cloudy
3:30 AM 62.6 °F 48.2 °F 59% 29.68 in 6.2 mi Variable 5.8 mph 18.4 mph N/A   Partly Cloudy
4:00 AM 62 °F 45 °F 43% 29.69 in 9 mi West 8.1 mph - -   Scattered Clouds
4:00 AM 62.6 °F 44.6 °F 52% 29.68 in 6.2 mi West 6.9 mph - N/A   Partly Cloudy
4:30 AM 62.6 °F 44.6 °F 52% 29.65 in 6.2 mi WSW 6.9 mph - N/A   Partly Cloudy
5:00 AM 58 °F 45 °F 52% 29.67 in - West 3.5 mph - -  
5:00 AM 57.2 °F 44.6 °F 63% 29.65 in 6.2 mi Variable 2.3 mph - N/A   Partly Cloudy
5:30 AM 59.0 °F 46.4 °F 63% 29.65 in - WNW 6.9 mph - N/A   Clear
6:00 AM 59 °F 45 °F 50% 29.66 in - West 9.2 mph - -  
6:00 AM 60.8 °F 44.6 °F 55% 29.65 in - WNW 9.2 mph - N/A   Clear
6:30 AM 57.2 °F 44.6 °F 63% 29.65 in - West 3.5 mph - N/A   Clear
7:00 AM 54 °F 44 °F 59% 29.67 in 12 mi West 4.6 mph - -   Scattered Clouds
7:00 AM 53.6 °F 44.6 °F 72% 29.65 in - West 3.5 mph - N/A   Clear
7:30 AM 53.6 °F 42.8 °F 67% 29.65 in 6.2 mi Variable 2.3 mph - N/A   Partly Cloudy
8:00 AM 54 °F 43 °F 57% 29.67 in - WSW 1.2 mph - -  
8:00 AM 55.4 °F 42.8 °F 63% 29.65 in 6.2 mi SW 3.5 mph - N/A   Partly Cloudy
8:30 AM 59.0 °F 42.8 °F 55% 29.68 in 6.2 mi WNW 13.8 mph - N/A   Partly Cloudy
9:00 AM 62 °F 35 °F 25% 29.72 in - WNW 26.5 mph - -  
9:00 AM 60.8 °F 35.6 °F 39% 29.71 in 6.2 mi WNW 26.5 mph 42.6 mph N/A   Scattered Clouds
9:30 AM 60.8 °F 35.6 °F 39% 29.74 in 6.2 mi West 24.2 mph 36.8 mph N/A   Scattered Clouds
10:00 AM 61 °F 33 °F 23% 29.75 in 19 mi West 26.5 mph - -   Scattered Clouds
10:00 AM 60.8 °F 33.8 °F 36% 29.74 in 6.2 mi West 26.5 mph 38.0 mph N/A   Partly Cloudy
10:30 AM 62.6 °F 33.8 °F 34% 29.74 in 6.2 mi West 23.0 mph - N/A   Partly Cloudy
11:00 AM 64 °F 33 °F 20% 29.75 in - West 23.0 mph - -  
11:00 AM 64.4 °F 32.0 °F 30% 29.74 in 6.2 mi West 21.9 mph - N/A   Partly Cloudy
11:30 AM 64.4 °F 32.0 °F 30% 29.74 in 6.2 mi WNW 20.7 mph 41.4 mph N/A   Partly Cloudy
12:00 PM 65 °F 31 °F 17% 29.77 in - WNW 25.3 mph - -  
12:00 PM 66.2 °F 30.2 °F 26% 29.77 in 6.2 mi WNW 23.0 mph 38.0 mph N/A   Mostly Cloudy
12:30 PM 62.6 °F 37.4 °F 39% 29.77 in 6.2 mi NW 24.2 mph 36.8 mph N/A   Scattered Clouds
1:00 PM 64 °F 33 °F 20% 29.79 in 19 mi WNW 27.6 mph - -   Partly Cloudy
1:00 PM 64.4 °F 33.8 °F 32% 29.77 in 6.2 mi WNW 25.3 mph 41.4 mph N/A   Scattered Clouds
1:30 PM 66.2 °F 30.2 °F 26% 29.77 in 6.2 mi WNW 24.2 mph 40.3 mph N/A   Scattered Clouds
2:00 PM 67 °F 30 °F 15% 29.78 in - WNW 23.0 mph - -  
2:00 PM 66.2 °F 30.2 °F 26% 29.77 in 6.2 mi WNW 21.9 mph 35.7 mph N/A   Scattered Clouds
2:30 PM 66.2 °F 30.2 °F 26% 29.77 in 6.2 mi WNW 26.5 mph 42.6 mph N/A   Mostly Cloudy
3:00 PM 66 °F 29 °F 14% 29.78 in - WNW 23.0 mph - -  
3:00 PM 64.4 °F 28.4 °F 26% 29.77 in 6.2 mi WNW 23.0 mph 34.5 mph N/A   Mostly Cloudy
3:30 PM 66.2 °F 28.4 °F 24% 29.77 in 6.2 mi WNW 24.2 mph 38.0 mph N/A   Mostly Cloudy
4:00 PM 66 °F 28 °F 14% 29.78 in 19 mi WNW 17.3 mph - -   Partly Cloudy
4:00 PM 66.2 °F 28.4 °F 24% 29.77 in 6.2 mi WNW 17.3 mph - N/A   Mostly Cloudy
4:30 PM 64.4 °F 26.6 °F 24% 29.77 in 6.2 mi West 31.1 mph 46.0 mph N/A   Scattered Clouds
5:00 PM 65 °F 26 °F 13% 29.79 in - WNW 26.5 mph - -  
5:00 PM 64.4 °F 26.6 °F 24% 29.77 in 6.2 mi WNW 26.5 mph 39.1 mph N/A   Scattered Clouds
5:30 PM 64.4 °F 26.6 °F 24% 29.77 in 6.2 mi WNW 25.3 mph 38.0 mph N/A   Scattered Clouds
6:00 PM 64 °F 27 °F 14% 29.80 in - WNW 26.5 mph - -  
6:00 PM 62.6 °F 26.6 °F 26% 29.80 in 6.2 mi WNW 25.3 mph 41.4 mph N/A   Scattered Clouds
6:30 PM 62.6 °F 28.4 °F 27% 29.80 in 6.2 mi West 18.4 mph - N/A   Partly Cloudy
7:00 PM 61 °F 26 °F 16% 29.81 in 19 mi West 20.7 mph - -   Scattered Clouds
7:00 PM 60.8 °F 26.6 °F 27% 29.80 in 6.2 mi West 21.9 mph - N/A   Partly Cloudy
7:30 PM 60.8 °F 26.6 °F 27% 29.80 in 6.2 mi West 20.7 mph - N/A   Partly Cloudy
8:00 PM 60 °F 29 °F 19% 29.84 in - West 16.1 mph - -  
8:00 PM 60.8 °F 28.4 °F 29% 29.83 in - West 15.0 mph - N/A   Clear
8:30 PM 59.0 °F 32.0 °F 36% 29.83 in - West 19.6 mph 32.2 mph N/A   Clear
9:00 PM 59 °F 30 °F 21% 29.84 in - West 18.4 mph - -  
9:00 PM 59.0 °F 30.2 °F 34% 29.83 in - West 15.0 mph - N/A   Clear
9:30 PM 59.0 °F 30.2 °F 34% 29.83 in - West 24.2 mph - N/A   Clear
10:00 PM 59 °F 29 °F 21% 29.83 in 19 mi West 27.6 mph - -  
10:00 PM 59.0 °F 30.2 °F 34% 29.80 in - WNW 27.6 mph 39.1 mph N/A   Clear
10:30 PM 59.0 °F 30.2 °F 34% 29.83 in - WNW 20.7 mph - N/A   Clear
11:00 PM 58 °F 30 °F 22% 29.86 in - West 13.8 mph - -  
11:00 PM 59.0 °F 30.2 °F 34% 29.86 in - West 16.1 mph 27.6 mph N/A   Clear
11:30 PM 59.0 °F 30.2 °F 34% 29.86 in - WSW 11.5 mph - N/A   Clear